| time (UTC) | temp F | wind direction | speed knots | gust knots | rain 1hr in | rain 24hr in | rain mn in | humidity % | barometer mb |
| 20260510073027 | 58 | 181 | 5.2 | 8.7 | 0.00 | 0.02 | 0.02 | 76 | 1017.4 |
| 20260510071536 | 58 | 187 | 6.1 | 9.6 | 0.00 | 0.02 | 0.02 | 76 | 1016.9 |
| 20260510070026 | 58 | 171 | 4.3 | 9.6 | 0.00 | 0.02 | 0.02 | 77 | 1016.9 |
| 20260510064524 | 57 | 179 | 6.1 | 9.6 | 0.00 | 0.02 | 0.02 | 79 | 1016.7 |
| 20260510063024 | 58 | 179 | 5.2 | 7.8 | 0.00 | 0.02 | 0.02 | 79 | 1016.8 |
| 20260510061533 | 59 | 187 | 1.7 | 3.5 | 0.00 | 0.02 | 0.02 | 79 | 1016.8 |
| 20260510060016 | 60 | 232 | 0.9 | 3.5 | 0.00 | 0.02 | 0.02 | 79 | 1016.9 |
| 20260510054515 | 60 | 237 | 0.9 | 3.5 | 0.00 | 0.02 | 0.02 | 80 | 1016.6 |
| 20260510053013 | 60 | 223 | 0.9 | 1.7 | 0.00 | 0.02 | 0.02 | 82 | 1016.7 |
| 20260510051513 | 60 | 216 | 0.0 | 1.7 | 0.00 | 0.02 | 0.02 | 83 | 1016.7 |
| 20260510050012 | 60 | 214 | 0.0 | 0.9 | 0.00 | 0.02 | 0.02 | 82 | 1016.5 |
| 20260510044511 | 60 | 191 | 0.9 | 1.7 | 0.00 | 0.02 | 0.02 | 82 | 1016.3 |
| 20260510043019 | 60 | 171 | 0.0 | 1.7 | 0.00 | 0.02 | 0.02 | 83 | 1016.2 |
| 20260510041510 | 60 | 227 | 0.0 | 1.7 | 0.00 | 0.02 | 0.02 | 83 | 1016.1 |
| 20260510040009 | 60 | 177 | 1.7 | 2.6 | 0.00 | 0.02 | 0.02 | 84 | 1016.1 |
| 20260510034509 | 60 | 172 | 0.9 | 1.7 | 0.00 | 0.02 | 0.02 | 84 | 1015.8 |
| 20260510033007 | 60 | 160 | 0.0 | 1.7 | 0.00 | 0.02 | 0.02 | 84 | 1015.8 |
| 20260510031515 | 60 | 159 | 0.0 | 1.7 | 0.00 | 0.02 | 0.02 | 84 | 1015.8 |
| 20260510030006 | 60 | 130 | 0.0 | 1.7 | 0.00 | 0.02 | 0.02 | 84 | 1016.0 |
| 20260510024505 | 60 | 164 | 1.7 | 2.6 | 0.00 | 0.02 | 0.02 | 84 | 1016.1 |
| 20260510023004 | 60 | 175 | 0.9 | 1.7 | 0.00 | 0.02 | 0.02 | 84 | 1016.4 |
| 20260510021502 | 60 | 167 | 0.9 | 1.7 | 0.00 | 0.02 | 0.02 | 85 | 1016.3 |
| 20260510020057 | 60 | 174 | 0.0 | 0.0 | 0.01 | 0.02 | 0.02 | 85 | 1016.3 |
| 20260510014556 | 60 | 174 | 0.9 | 2.6 | 0.02 | 0.02 | 0.02 | 85 | 1016.5 |
| 20260510011556 | 60 | 186 | 0.9 | 2.6 | 0.02 | 0.02 | 0.02 | 80 | 1016.7 |
| 20260510010050 | 61 | 204 | 0.9 | 2.6 | 0.01 | 0.01 | 0.01 | 80 | 1016.9 |
| 20260510004551 | 61 | 200 | 1.7 | 3.5 | 0.00 | 0.00 | 0.00 | 80 | 1017.1 |
| 20260510003104 | 62 | 87 | 0.9 | 4.3 | 0.00 | 0.00 | 0.00 | 80 | 1017.3 |
| 20260510001546 | 61 | 185 | 1.7 | 4.3 | 0.00 | 0.00 | 0.00 | 76 | 1017.6 |
| 20260510000046 | 61 | 178 | 1.7 | 2.6 | 0.00 | 0.00 | 0.00 | 76 | 1017.6 |
| 20260509234558 | 62 | 177 | 0.9 | 2.6 | 0.00 | 0.00 | 0.00 | 76 | 1017.3 |
| 20260509233042 | 62 | 173 | 1.7 | 3.5 | 0.00 | 0.00 | 0.00 | 74 | 1017.3 |
| 20260509231550 | 61 | 236 | 0.0 | 2.6 | 0.00 | 0.00 | 0.00 | 77 | 1017.2 |
| 20260509230035 | 61 | 110 | 0.0 | 1.7 | 0.00 | 0.00 | 0.00 | 79 | 1017.3 |
| 20260509224534 | 62 | 187 | 1.7 | 3.5 | 0.00 | 0.00 | 0.00 | 77 | 1017.2 |
| 20260509223031 | 63 | 19 | 0.0 | 3.5 | 0.00 | 0.00 | 0.00 | 77 | 1017.1 |
| 20260509221530 | 63 | 12 | 0.9 | 1.7 | 0.00 | 0.00 | 0.00 | 75 | 1017.2 |
| 20260509220030 | 63 | 347 | 0.9 | 1.7 | 0.00 | 0.00 | 0.00 | 75 | 1017.3 |
| 20260509214532 | 63 | 8 | 0.0 | 1.7 | 0.00 | 0.00 | 0.00 | 75 | 1017.3 |
| 20260509213027 | 63 | 8 | 0.0 | 4.3 | 0.00 | 0.00 | 0.00 | 75 | 1017.2 |
| 20260509211528 | 63 | 10 | 2.6 | 5.2 | 0.00 | 0.00 | 0.00 | 75 | 1017.1 |
| 20260509210026 | 63 | 12 | 2.6 | 4.3 | 0.00 | 0.00 | 0.00 | 74 | 1016.9 |
| 20260509204525 | 63 | 7 | 3.5 | 7.8 | 0.00 | 0.00 | 0.00 | 74 | 1016.7 |
| 20260509203028 | 63 | 3 | 1.7 | 5.2 | 0.00 | 0.00 | 0.00 | 75 | 1016.6 |
| 20260509201523 | 63 | 19 | 2.6 | 7.0 | 0.00 | 0.00 | 0.00 | 75 | 1016.5 |
| 20260509200025 | 63 | 20 | 3.5 | 7.8 | 0.00 | 0.00 | 0.00 | 75 | 1016.4 |
| 20260509194529 | 63 | 3 | 2.6 | 7.8 | 0.00 | 0.00 | 0.00 | 76 | 1016.3 |
| 20260509193022 | 64 | 329 | 3.5 | 7.0 | 0.00 | 0.00 | 0.00 | 75 | 1016.0 |
| 20260509191521 | 64 | 36 | 1.7 | 4.3 | 0.00 | 0.00 | 0.00 | 75 | 1015.9 |
| 20260509190023 | 64 | 6 | 2.6 | 7.8 | 0.00 | 0.00 | 0.00 | 75 | 1016.0 |
| 20260509184520 | 64 | 13 | 3.5 | 7.8 | 0.00 | 0.00 | 0.00 | 74 | 1016.1 |
| 20260509183026 | 64 | 5 | 3.5 | 8.7 | 0.00 | 0.00 | 0.00 | 72 | 1015.7 |
| 20260509181531 | 65 | 36 | 4.3 | 9.6 | 0.00 | 0.00 | 0.00 | 73 | 1015.8 |
| 20260509180018 | 66 | 341 | 3.5 | 8.7 | 0.00 | 0.00 | 0.00 | 73 | 1015.8 |
| 20260509174516 | 65 | 19 | 5.2 | 11.3 | 0.00 | 0.00 | 0.00 | 74 | 1015.8 |
| 20260509173022 | 65 | 27 | 5.2 | 9.6 | 0.00 | 0.00 | 0.00 | 75 | 1016.0 |
| 20260509171513 | 65 | 354 | 5.2 | 11.3 | 0.00 | 0.00 | 0.00 | 71 | 1016.1 |
| 20260509170011 | 65 | 305 | 5.2 | 9.6 | 0.00 | 0.00 | 0.00 | 74 | 1015.9 |
| 20260509164512 | 65 | 36 | 3.5 | 8.7 | 0.00 | 0.00 | 0.00 | 73 | 1015.9 |
| 20260509163009 | 65 | 5 | 4.3 | 10.4 | 0.00 | 0.00 | 0.00 | 73 | 1015.8 |
| 20260509161507 | 65 | 360 | 2.6 | 7.0 | 0.00 | 0.00 | 0.00 | 72 | 1015.8 |
| 20260509160008 | 65 | 322 | 3.5 | 8.7 | 0.00 | 0.00 | 0.00 | 72 | 1015.9 |
| 20260509154502 | 65 | 13 | 2.6 | 8.7 | 0.00 | 0.00 | 0.00 | 72 | 1015.9 |
| 20260509151600 | 64 | 352 | 2.6 | 9.6 | 0.00 | 0.00 | 0.00 | 72 | 1015.9 |
| 20260509150059 | 64 | 300 | 4.3 | 10.4 | 0.00 | 0.00 | 0.00 | 73 | 1015.9 |
| 20260509144559 | 64 | 12 | 2.6 | 9.6 | 0.00 | 0.00 | 0.00 | 73 | 1016.1 |
| 20260509143158 | 65 | 332 | 4.3 | 7.8 | 0.00 | 0.00 | 0.00 | 71 | 1016.2 |
| 20260509141608 | 65 | 31 | 3.5 | 7.8 | 0.00 | 0.00 | 0.00 | 71 | 1016.1 |
| 20260509140156 | 65 | 46 | 3.5 | 8.7 | 0.00 | 0.00 | 0.00 | 71 | 1016.1 |
| 20260509134600 | 65 | 339 | 3.5 | 9.6 | 0.00 | 0.00 | 0.00 | 68 | 1016.2 |
| 20260509133100 | 65 | 342 | 5.2 | 11.3 | 0.00 | 0.00 | 0.00 | 68 | 1016.6 |
| 20260509131554 | 65 | 11 | 4.3 | 10.4 | 0.00 | 0.00 | 0.00 | 65 | 1016.7 |
| 20260509130054 | 65 | 301 | 3.5 | 8.7 | 0.00 | 0.00 | 0.00 | 68 | 1016.7 |
| 20260509124550 | 65 | 336 | 4.3 | 8.7 | 0.00 | 0.00 | 0.00 | 65 | 1016.8 |
| 20260509123052 | 65 | 18 | 3.5 | 7.8 | 0.00 | 0.00 | 0.00 | 69 | 1016.8 |
| 20260509121547 | 65 | 360 | 3.5 | 8.7 | 0.00 | 0.00 | 0.00 | 69 | 1016.8 |
| 20260509120052 | 65 | 356 | 2.6 | 8.7 | 0.00 | 0.00 | 0.00 | 69 | 1016.8 |
| 20260509114545 | 64 | 352 | 2.6 | 7.8 | 0.00 | 0.00 | 0.00 | 70 | 1016.9 |
| 20260509113045 | 65 | 308 | 2.6 | 8.7 | 0.00 | 0.00 | 0.00 | 68 | 1016.9 |
| 20260509111551 | 65 | 326 | 4.3 | 9.6 | 0.00 | 0.00 | 0.00 | 64 | 1016.8 |
| 20260509110044 | 65 | 137 | 2.6 | 10.4 | 0.00 | 0.00 | 0.00 | 64 | 1016.8 |
| 20260509104545 | 65 | 360 | 2.6 | 8.7 | 0.00 | 0.00 | 0.00 | 67 | 1016.9 |
| 20260509103041 | 66 | 26 | 0.9 | 4.3 | 0.00 | 0.00 | 0.00 | 67 | 1016.8 |
| 20260509101543 | 65 | 8 | 2.6 | 7.8 | 0.00 | 0.00 | 0.00 | 67 | 1016.8 |
| 20260509100033 | 65 | 17 | 3.5 | 7.8 | 0.00 | 0.00 | 0.00 | 67 | 1016.7 |
| 20260509094528 | 63 | 337 | 2.6 | 7.8 | 0.00 | 0.00 | 0.00 | 68 | 1016.6 |
| 20260509093038 | 64 | 50 | 2.6 | 5.2 | 0.00 | 0.00 | 0.00 | 68 | 1016.5 |
| 20260509091512 | 63 | 31 | 1.7 | 3.5 | 0.00 | 0.00 | 0.00 | 68 | 1016.4 |
| 20260509090011 | 63 | 356 | 1.7 | 6.1 | 0.00 | 0.00 | 0.00 | 71 | 1016.4 |
| 20260509084520 | 62 | 341 | 1.7 | 4.3 | 0.00 | 0.00 | 0.00 | 73 | 1016.3 |
| 20260509083007 | 61 | 185 | 0.0 | 1.7 | 0.00 | 0.00 | 0.00 | 77 | 1016.2 |
| 20260509081506 | 60 | 181 | 0.9 | 2.6 | 0.00 | 0.00 | 0.00 | 75 | 1016.1 |
| 20260509080015 | 60 | 216 | 1.7 | 2.6 | 0.00 | 0.00 | 0.00 | 75 | 1016.0 |
| 20260509074504 | 59 | 191 | 0.9 | 2.6 | 0.00 | 0.00 | 0.00 | 72 | 1015.7 |